CDT,Max TemperatureF,Mean TemperatureF,Min TemperatureF,Max Dew PointF,MeanDew PointF,Min DewpointF,Max Humidity, Mean Humidity, Min Humidity, Max Sea Level PressureIn, Mean Sea Level PressureIn, Min Sea Level PressureIn, Max VisibilityMiles, Mean VisibilityMiles, Min VisibilityMiles, Max Wind SpeedMPH, Mean Wind SpeedMPH, Max Gust SpeedMPH,PrecipitationIn, CloudCover, Events, WindDirDegrees
2011-10-1,77,60,46,45,42,40,83,58,27,30.25,30.19,30.14,10,10,10,7,2,,0.00,0,,359
2011-10-2,75,58,42,45,41,35,96,57,24,30.31,30.22,30.17,10,10,10,5,1,,0.00,0,,150
2011-10-3,81,60,41,47,42,37,93,63,21,30.29,30.22,30.16,10,10,10,6,0,,0.00,0,,179
2011-10-4,82,63,44,48,43,39,93,59,23,30.29,30.21,30.16,10,10,10,5,1,,0.00,0,,146
2011-10-5,82,63,45,50,45,43,93,58,28,30.22,30.15,30.08,10,10,8,8,1,,0.00,0,,95
2011-10-6,86,70,53,55,51,49,89,53,28,30.15,30.10,30.04,10,10,8,8,2,,0.00,0,,113
2011-10-7,87,74,62,58,54,52,75,55,32,30.21,30.14,30.09,10,10,10,10,3,17,0.00,0,,121
2011-10-8,86,74,63,57,56,54,78,55,34,30.20,30.14,30.07,10,10,10,12,5,18,0.00,0,,106
2011-10-9,82,73,64,58,55,52,75,55,36,30.18,30.10,30.03,10,10,10,13,5,20,0.00,1,,93
2011-10-10,80,72,63,62,59,53,90,69,52,30.09,30.02,29.95,10,10,10,7,3,,0.00,2,,87
2011-10-11,84,70,57,64,60,55,96,72,39,29.96,29.88,29.81,10,8,1,9,2,,0.28,3,Rain-Thunderstorm,27
2011-10-12,71,66,62,64,62,60,100,91,68,29.88,29.78,29.70,10,7,2,6,1,,0.30,5,Rain-Thunderstorm,63
2011-10-13,80,66,51,63,55,39,100,79,24,29.90,29.78,29.72,10,7,0,13,3,21,0.00,2,Fog,306
2011-10-14,84,65,46,50,46,36,96,65,18,29.98,29.93,29.88,10,10,10,7,1,,0.00,0,,307
2011-10-15,80,62,46,52,43,35,93,57,22,30.15,30.07,30.00,10,10,9,4,1,,0.00,0,,116
2011-10-16,91,69,48,54,49,45,90,59,23,30.05,29.96,29.87,10,10,10,10,2,16,0.00,0,,199
2011-10-17,86,68,53,59,54,51,96,64,31,29.91,29.79,29.67,10,9,4,8,2,17,0.00,0,,103
2011-10-18,64,57,45,63,48,36,94,78,42,29.92,29.83,29.70,10,8,2,17,11,26,0.56,7,Rain-Thunderstorm,341
2011-10-19,57,47,37,36,33,30,89,58,38,30.00,29.93,29.89,10,10,10,16,10,28,0.00,2,,314
2011-10-20,63,48,32,36,32,25,92,66,24,30.14,30.05,30.00,10,10,10,13,3,21,0.00,0,,297
2011-10-21,73,52,33,43,37,32,96,65,25,30.25,30.16,30.12,10,10,10,4,0,,0.00,0,,-1
2011-10-22,78,57,39,55,47,39,97,66,38,30.15,30.07,29.99,10,9,6,5,1,,0.00,1,Rain-Thunderstorm,90
2011-10-23,71,62,54,61,58,53,100,90,63,30.12,30.03,29.95,10,6,1,8,2,,1.04,6,Rain-Thunderstorm,43
2011-10-24,77,64,53,60,56,53,100,87,50,30.24,30.16,30.12,10,4,0,4,0,,0.00,2,Fog,-1
2011-10-25,81,64,48,60,53,48,100,79,48,30.15,30.07,29.92,10,6,1,10,1,20,0.00,0,,186
2011-10-26,80,70,60,66,61,56,93,77,56,29.93,29.87,29.81,10,10,6,12,2,,0.00,3,Rain,267
2011-10-27,60,55,48,54,48,44,94,86,71,30.13,30.03,29.88,10,8,2,12,7,16,0.43,8,Rain-Thunderstorm,9
2011-10-28,63,50,37,47,40,33,93,72,34,30.23,30.17,30.08,10,10,5,9,4,,0.14,4,Rain,356
2011-10-29,66,50,34,43,37,32,97,74,30,30.27,30.18,30.11,10,8,4,6,1,,0.00,0,,305
2011-10-30,69,52,36,44,38,35,97,72,30,30.21,30.14,30.07,10,9,6,8,1,,0.00,0,,224
2011-10-31,73,54,35,43,38,32,96,66,24,30.22,30.16,30.11,10,10,6,4,0,,0.00,0,,210